Date String (YYYY-MM-DD hh:mm:ss) UTC,Instrument flags,Ambient pressure (hPa),Sample flow (lpm),Bypass flow (lpm),Sample temperature (°C),Ambient temperature (°C),ASC tube jacket temperature (°C),LED temperature (°C),Box temperature (°C),Sample RH (%),Span deviation,Mass concentration (μg/m³),Mass concentration (μg/m³),Mass concentration (μg/m³)
DateTimeUTC,F1_M11,P_M11,Q1_M11,Q2_M11,T1_M11,T2_M11,T3_M11,T4_M11,T5_M11,U1_M11,ZSPAN_M11,X2_M11,X0_M11,X1_M11
2022-09-12 16:00:00,,0829.5,5.01,0.00,30.2,29.1,00.0,38.8,32.0,17.2,0002.3,0009.60,0015.32,0009.15
2022-09-12 16:01:00,,0829.5,5.00,0.00,30.2,29.1,00.0,38.8,32.0,15.8,0002.8,0009.54,0015.19,0009.10
2022-09-12 16:02:00,,0829.4,5.01,0.00,30.2,29.1,00.0,38.8,32.0,14.7,0002.8,0009.51,0015.06,0009.08
2022-09-12 16:03:00,,0829.5,4.98,0.00,30.2,29.1,00.0,38.8,32.1,12.8,0002.8,0009.53,0015.21,0009.10
2022-09-12 16:04:00,,0829.5,5.01,0.00,30.2,29.1,00.0,38.9,32.1,13.3,0002.7,0009.56,0014.48,0009.12
2022-09-12 16:05:00,,0829.5,5.00,0.00,30.3,29.2,00.0,38.9,32.1,14.0,0002.5,0009.61,0014.45,0009.13
2022-09-12 16:06:00,,0829.5,5.01,0.00,30.3,29.2,00.0,38.9,32.1,15.9,0002.2,0009.59,0014.35,0009.12
2022-09-12 16:07:00,,0829.5,4.99,0.00,30.3,29.2,00.0,38.9,32.1,16.0,0001.9,0009.55,0014.24,0009.08
2022-09-12 16:08:00,,0829.5,4.99,0.00,30.3,29.2,00.0,39.0,32.2,16.6,0001.8,0009.52,0015.06,0009.05
2022-09-12 16:09:00,,0829.5,5.00,0.00,30.4,29.3,00.0,39.0,32.2,17.8,0001.6,0009.49,0014.89,0009.02
2022-09-12 16:10:00,,0829.5,5.01,0.00,30.4,29.3,00.0,39.0,32.2,18.1,0001.7,0009.47,0013.73,0009.01
2022-09-12 16:11:00,,0829.4,5.01,0.00,30.4,29.3,00.0,39.0,32.2,16.8,0001.6,0009.48,0013.59,0009.03
2022-09-12 16:12:00,,0829.5,4.99,0.00,30.4,29.4,00.0,39.0,32.3,17.2,0001.5,0009.48,0014.26,0009.01
2022-09-12 16:13:00,,0829.4,5.00,0.00,30.5,29.4,00.0,39.1,32.3,16.7,0001.4,0009.47,0014.22,0009.01
2022-09-12 16:14:00,,0829.5,5.00,0.00,30.5,29.4,00.0,39.1,32.3,15.8,0001.3,0009.44,0014.12,0008.99
2022-09-12 16:15:00,,0829.5,4.99,0.00,30.5,29.4,00.0,39.1,32.3,14.3,0001.3,0009.43,0014.43,0008.96
2022-09-12 16:16:00,,0829.5,5.01,0.00,30.5,29.5,00.0,39.1,32.4,13.9,0000.8,0009.39,0014.48,0008.94
2022-09-12 16:17:00,,0829.5,5.01,0.00,30.5,29.5,00.0,39.2,32.4,14.2,0000.8,0009.40,0014.52,0008.95
2022-09-12 16:18:00,,0829.5,4.99,0.00,30.6,29.5,00.0,39.2,32.4,13.6,0001.5,0009.46,0014.62,0008.98
2022-09-12 16:19:00,,0829.5,5.01,0.00,30.6,29.5,00.0,39.2,32.4,11.3,0001.8,0009.56,0013.92,0009.05
2022-09-12 16:20:00,,0829.5,5.01,0.00,30.6,29.5,00.0,39.2,32.4,10.6,0002.2,0009.63,0013.93,0009.14
2022-09-12 16:21:00,,0829.5,4.98,0.00,30.6,29.6,00.0,39.3,32.5,12.5,0001.6,0009.70,0014.02,0009.21
2022-09-12 16:22:00,,0829.5,5.01,0.00,30.7,29.6,00.0,39.3,32.5,13.7,0001.5,0009.76,0014.08,0009.26
2022-09-12 16:23:00,,0829.5,4.99,0.00,30.7,29.6,00.0,39.3,32.5,14.6,0000.8,0009.83,0013.81,0009.33
2022-09-12 16:24:00,,0829.5,4.99,0.00,30.7,29.6,00.0,39.3,32.5,13.5,0000.5,0009.87,0013.96,0009.37
2022-09-12 16:25:00,,0829.5,5.01,0.00,30.7,29.7,00.0,39.3,32.5,11.5,0001.2,0009.92,0014.00,0009.41
2022-09-12 16:26:00,,0829.5,4.99,0.00,30.7,29.7,00.0,39.4,32.6,09.4,0001.3,0009.97,0014.27,0009.45
2022-09-12 16:27:00,,0829.6,5.01,0.00,30.8,29.7,00.0,39.4,32.6,11.5,0001.5,0010.01,0015.01,0009.49
2022-09-12 16:28:00,,0829.6,5.01,0.00,30.8,29.8,00.0,39.4,32.6,14.1,0001.4,0010.03,0015.08,0009.50
2022-09-12 16:29:00,,0829.6,4.98,0.00,30.9,29.7,00.0,39.4,32.7,15.5,0000.9,0010.03,0015.06,0009.49
2022-09-12 16:30:00,,0829.6,5.01,0.00,30.9,28.6,00.0,39.4,32.6,15.5,0000.9,0010.00,0015.75,0009.46
2022-09-12 16:31:00,,0829.6,5.00,0.00,30.8,27.5,00.0,39.4,32.5,15.6,0000.6,0009.97,0016.24,0009.42
2022-09-12 16:32:00,,0829.5,5.00,0.00,30.8,27.6,00.0,39.3,32.5,14.3,0000.7,0009.98,0016.33,0009.39
2022-09-12 16:33:00,,0829.4,5.00,0.00,30.7,27.8,00.0,39.3,32.3,13.0,0001.1,0009.99,0016.73,0009.39
2022-09-12 16:34:00,,0829.5,5.00,0.00,30.6,28.1,00.0,39.3,32.2,12.7,0001.5,0009.97,0016.53,0009.39
2022-09-12 16:35:00,,0829.5,4.99,0.00,30.6,28.3,00.0,39.2,32.2,13.3,0001.9,0009.95,0016.16,0009.37
2022-09-12 16:36:00,,0829.5,5.00,0.00,30.5,28.6,00.0,39.2,32.2,13.0,0002.0,0009.92,0016.09,0009.36
2022-09-12 16:37:00,,0829.5,5.00,0.00,30.5,28.7,00.0,39.2,32.2,13.5,0001.9,0009.86,0015.77,0009.32
2022-09-12 16:38:00,,0829.5,5.00,0.00,30.5,28.9,00.0,39.2,32.3,13.4,0001.9,0009.79,0014.70,0009.27
2022-09-12 16:39:00,,0829.5,5.00,0.00,30.5,29.0,00.0,39.2,32.3,14.1,0002.0,0009.78,0014.78,0009.25
2022-09-12 16:40:00,,0829.4,5.00,0.00,30.5,29.1,00.0,39.2,32.3,13.8,0002.2,0009.80,0014.93,0009.26
2022-09-12 16:41:00,,0829.4,5.00,0.00,30.5,29.1,00.0,39.2,32.3,14.1,0002.5,0009.81,0014.53,0009.27
2022-09-12 16:42:00,,0829.3,5.00,0.00,30.6,29.2,00.0,39.3,32.3,14.9,0002.7,0009.81,0014.14,0009.26
2022-09-12 16:43:00,,0829.3,5.01,0.00,30.6,29.3,00.0,39.3,32.4,14.2,0002.8,0009.77,0014.03,0009.23
2022-09-12 16:44:00,,0829.3,5.00,0.00,30.6,29.4,00.0,39.3,32.4,14.1,0003.4,0009.70,0013.57,0009.19
2022-09-12 16:45:00,,0829.3,4.99,0.00,30.6,29.4,00.0,39.3,32.4,14.7,0003.4,0009.68,0013.51,0009.16
2022-09-12 16:46:00,,0829.3,5.01,0.00,30.6,29.4,00.0,39.3,32.4,15.6,0003.3,0009.67,0013.71,0009.13
2022-09-12 16:47:00,,0829.3,5.01,0.00,30.7,29.5,00.0,39.3,32.5,15.9,0003.3,0009.66,0013.82,0009.09
2022-09-12 16:48:00,,0829.3,4.99,0.00,30.7,29.5,00.0,39.3,32.5,15.9,0003.6,0009.62,0013.74,0009.07
2022-09-12 16:49:00,,0829.3,4.99,0.00,30.7,28.8,00.0,39.3,32.5,15.8,0003.6,0009.62,0013.64,0009.06
2022-09-12 16:50:00,,0829.3,5.01,0.00,30.7,27.6,00.0,39.3,32.4,15.5,0003.8,0009.59,0013.64,0009.06
2022-09-12 16:51:00,,0829.3,5.00,0.00,30.6,27.5,00.0,39.3,32.4,15.4,0003.6,0009.56,0014.22,0009.06
2022-09-12 16:52:00,,0829.2,5.00,0.00,30.6,27.7,00.0,39.2,32.2,16.1,0003.0,0009.56,0014.29,0009.05
2022-09-12 16:53:00,,0829.2,5.00,0.00,30.5,28.0,00.0,39.2,32.2,16.2,0002.6,0009.52,0014.37,0009.03
2022-09-12 16:54:00,,0829.2,4.99,0.00,30.5,28.3,00.0,39.2,32.1,15.8,0002.8,0009.52,0014.52,0009.04
2022-09-12 16:55:00,,0829.2,5.01,0.00,30.5,28.5,00.0,39.2,32.2,13.1,0002.3,0009.58,0014.82,0009.06
2022-09-12 16:56:00,,0829.2,5.00,0.00,30.5,28.7,00.0,39.2,32.2,12.1,0001.7,0009.63,0015.27,0009.11
2022-09-12 16:57:00,,0829.3,5.00,0.00,30.5,28.8,00.0,39.2,32.2,11.7,0001.8,0009.68,0015.20,0009.15
2022-09-12 16:58:00,,0829.2,5.00,0.00,30.5,29.0,00.0,39.2,32.2,12.2,0001.2,0009.77,0015.34,0009.21
2022-09-12 16:59:00,,0829.2,5.00,0.00,30.5,29.1,00.0,39.2,32.3,13.1,0000.7,0009.85,0015.48,0009.28
